Fredericksburg, TX

8:26 AM CST on February 25, 2017 (GMT -0600)
Fredericksburg

Weather History for KT82 - May, 2014

Change the Weather History Date:

Sunday, May 4, 2014

  Actual Average (KSAT) Record (KSAT)
Temperature  
Mean Temperature 74 °F -  
Max Temperature 88 °F 82 °F 99 °F (1984)
Min Temperature 59 °F 60 °F 42 °F (2013)
Cooling Degree Days 8    
Growing Degree Days 24 (Base 50)    
Moisture  
Dew Point 34 °F    
Average Humidity 24    
Maximum Humidity 47    
Minimum Humidity 13    
Precipitation  
Precipitation 0.00 in - - ()
Sea Level Pressure  
Sea Level Pressure 30.06 in    
Wind  
Wind Speed 7 mph (SSW)    
Max Wind Speed 20 mph    
Max Gust Speed 25 mph    
Visibility 10 miles    
Events      
Averages and records for this station are not official NWS values.
T = Trace of Precipitation, MM = Missing Value Source: NWS Daily Summary

Daily Weather History Graph

Daily Weather History Graph

Search for Another Location

Airport or City:

Trip Planner

Search our weather history database for the weather conditions in past years. The results will help you decide how hot, cold, wet, or windy it might be!

Date:

Astronomy

May. 04, 2014 Rise Set
Actual Time 6:49 AM CDT 8:15 PM CDT
Civil Twilight 6:24 AM CDT 8:41 PM CDT
Nautical Twilight 5:53 AM CDT 9:11 PM CDT
Astronomical Twilight 5:21 AM CDT 9:43 PM CDT
Moon 11:16 AM CDT (5/4) 12:19 AM CDT (5/4)
Length of Visible Light 14h 16m
Length of Day
13h 25m
Waxing Crescent, 28% of the Moon is Illuminated
May 4
Waxing Crescent
May 6
First Quarter
May 14
Full
May 21
Last Quarter
May 28
New

Hourly Weather History & Observations

Time (CDT) Temp. Dew Point Humidity Pressure Visibility Wind Dir Wind Speed Gust Speed Precip Events Conditions
12:15 AM 61.9 °F 31.8 °F 32% 30.08 in 10.0 mi Calm Calm - N/A   Clear
12:35 AM 64.4 °F 30.9 °F 29% 30.09 in 10.0 mi Calm Calm - N/A   Clear
12:55 AM 63.3 °F 31.5 °F 30% 30.09 in 10.0 mi Calm Calm - N/A   Clear
1:15 AM 64.8 °F 31.1 °F 28% 30.09 in 10.0 mi Calm Calm - N/A   Clear
1:35 AM 68.4 °F 32.0 °F 26% 30.09 in 10.0 mi SSW 9.2 mph 16.1 mph N/A   Clear
1:55 AM 68.5 °F 32.4 °F 26% 30.09 in 10.0 mi SSW 9.2 mph 19.6 mph N/A   Clear
2:15 AM 67.1 °F 32.9 °F 28% 30.09 in 10.0 mi SW 6.9 mph - N/A   Clear
2:35 AM 67.1 °F 33.3 °F 29% 30.08 in 10.0 mi SW 6.9 mph - N/A   Clear
2:55 AM 66.4 °F 33.3 °F 29% 30.08 in 10.0 mi SW 5.8 mph - N/A   Clear
3:15 AM 64.9 °F 33.4 °F 31% 30.08 in 10.0 mi Calm Calm - N/A   Clear
3:35 AM 63.7 °F 33.8 °F 33% 30.08 in 10.0 mi Calm Calm - N/A   Clear
3:55 AM 63.0 °F 33.8 °F 34% 30.09 in 10.0 mi SW 3.5 mph - N/A   Clear
4:15 AM 62.6 °F 33.8 °F 34% 30.09 in 10.0 mi SW 3.5 mph - N/A   Clear
4:35 AM 62.8 °F 33.8 °F 34% 30.09 in 10.0 mi SSW 3.5 mph - N/A   Clear
5:15 AM 61.9 °F 33.1 °F 34% 30.09 in 10.0 mi SW 5.8 mph - N/A   Clear
5:35 AM 61.7 °F 32.9 °F 34% 30.09 in 10.0 mi SW 5.8 mph - N/A   Clear
5:55 AM 61.5 °F 32.5 °F 34% 30.10 in 10.0 mi SW 6.9 mph - N/A   Clear
6:15 AM 61.0 °F 32.2 °F 34% 30.10 in 10.0 mi SW 5.8 mph - N/A   Clear
6:35 AM 60.4 °F 32.0 °F 34% 30.10 in 10.0 mi SW 4.6 mph - N/A   Clear
6:55 AM 59.5 °F 32.2 °F 36% 30.10 in 10.0 mi SW 4.6 mph - N/A   Clear
7:15 AM 59.2 °F 32.4 °F 36% 30.11 in 10.0 mi SW 3.5 mph - N/A   Clear
7:35 AM 60.8 °F 32.9 °F 35% 30.11 in 10.0 mi WSW 3.5 mph - N/A   Clear
7:55 AM 62.2 °F 33.3 °F 34% 30.11 in 10.0 mi SW 6.9 mph - N/A   Clear
8:15 AM 64.4 °F 32.4 °F 30% 30.11 in 10.0 mi SSW 9.2 mph - N/A   Clear
8:35 AM 66.2 °F 31.8 °F 28% 30.11 in 10.0 mi SSW 12.7 mph 17.3 mph N/A   Clear
8:55 AM 67.8 °F 31.1 °F 26% 30.11 in 10.0 mi SSW 15.0 mph 20.7 mph N/A   Clear
9:15 AM 69.4 °F 30.2 °F 23% 30.12 in 10.0 mi SSW 16.1 mph 23.0 mph N/A   Clear
9:35 AM 70.9 °F 30.6 °F 22% 30.12 in 10.0 mi SSW 16.1 mph - N/A   Clear
9:55 AM 72.1 °F 30.0 °F 21% 30.13 in 10.0 mi SSW 19.6 mph 23.0 mph N/A   Clear
10:15 AM 73.4 °F 30.7 °F 21% 30.13 in 10.0 mi SSW 16.1 mph - N/A   Clear
10:35 AM 75.2 °F 31.3 °F 20% 30.13 in 10.0 mi SSW 13.8 mph 20.7 mph N/A   Clear
10:55 AM 76.5 °F 30.4 °F 18% 30.13 in 10.0 mi SW 17.3 mph 21.9 mph N/A   Clear
11:35 AM 78.6 °F 31.3 °F 18% 30.12 in 10.0 mi SSW 15.0 mph 23.0 mph N/A   Clear
11:55 AM 80.1 °F 31.3 °F 17% 30.12 in 10.0 mi SSW 17.3 mph 25.3 mph N/A   Clear
12:15 PM 81.5 °F 32.2 °F 17% 30.11 in 10.0 mi SSW 13.8 mph 20.7 mph N/A   Clear
12:35 PM 81.9 °F 32.2 °F 17% 30.11 in 10.0 mi SW 17.3 mph 24.2 mph N/A   Clear
12:55 PM 83.5 °F 32.4 °F 16% 30.10 in 10.0 mi South 16.1 mph - N/A   Clear
1:15 PM 83.8 °F 31.5 °F 15% 30.09 in 10.0 mi South 17.3 mph 25.3 mph N/A   Clear
1:35 PM 84.4 °F 31.5 °F 15% 30.08 in 10.0 mi South 16.1 mph 24.2 mph N/A   Clear
1:55 PM 85.1 °F 31.1 °F 14% 30.07 in 10.0 mi SSW 18.4 mph 24.2 mph N/A   Clear
2:15 PM 85.3 °F 31.8 °F 15% 30.06 in 10.0 mi South 16.1 mph 21.9 mph N/A   Clear
2:35 PM 86.4 °F 32.2 °F 14% 30.05 in 10.0 mi South 11.5 mph 20.7 mph N/A   Clear
2:55 PM 86.9 °F 31.8 °F 14% 30.05 in 10.0 mi South 12.7 mph 23.0 mph N/A   Clear
3:15 PM 87.1 °F 32.2 °F 14% 30.04 in 10.0 mi SSW 11.5 mph 19.6 mph N/A   Clear
3:35 PM 88.0 °F 32.5 °F 14% 30.03 in 10.0 mi South 13.8 mph 19.6 mph N/A   Clear
3:55 PM 88.2 °F 33.4 °F 14% 30.02 in 10.0 mi South 12.7 mph 21.9 mph N/A   Clear
4:15 PM 87.4 °F 32.2 °F 14% 30.01 in 10.0 mi SSW 12.7 mph 19.6 mph N/A   Clear
4:35 PM 88.0 °F 32.7 °F 14% 30.00 in 10.0 mi SSW 9.2 mph 21.9 mph N/A   Clear
4:55 PM 88.7 °F 32.2 °F 13% 30.00 in 10.0 mi South 10.4 mph 17.3 mph N/A   Clear
5:15 PM 88.2 °F 32.9 °F 14% 29.99 in 10.0 mi SSW 11.5 mph 18.4 mph N/A   Clear
5:35 PM 87.8 °F 33.1 °F 14% 29.99 in 10.0 mi South 13.8 mph 18.4 mph N/A   Clear
5:55 PM 87.3 °F 33.1 °F 14% 29.98 in 10.0 mi South 11.5 mph - N/A   Clear
6:15 PM 87.3 °F 32.7 °F 14% 29.98 in 10.0 mi South 10.4 mph 18.4 mph N/A   Clear
6:35 PM 86.9 °F 32.5 °F 14% 29.98 in 10.0 mi South 10.4 mph - N/A   Clear
6:55 PM 86.0 °F 32.9 °F 15% 29.97 in 10.0 mi South 13.8 mph 17.3 mph N/A   Clear
7:15 PM 85.1 °F 34.7 °F 16% 29.97 in 10.0 mi SSE 9.2 mph - N/A   Clear
7:35 PM 83.8 °F 35.6 °F 18% 29.98 in 10.0 mi South 11.5 mph - N/A   Clear
7:55 PM 82.6 °F 36.7 °F 19% 29.98 in 10.0 mi SSE 10.4 mph - N/A   Clear
8:15 PM 80.6 °F 37.8 °F 22% 29.99 in 10.0 mi SSE 6.9 mph - N/A   Clear
8:35 PM 79.5 °F 38.3 °F 23% 29.99 in 10.0 mi SSE 5.8 mph - N/A   Clear
8:55 PM 78.1 °F 38.3 °F 24% 29.99 in 10.0 mi SSE 5.8 mph - N/A   Clear
9:15 PM 76.5 °F 38.3 °F 25% 30.00 in 10.0 mi SSE 4.6 mph - N/A   Clear
9:35 PM 76.1 °F 38.3 °F 26% 30.00 in 10.0 mi SSE 5.8 mph - N/A   Clear
9:55 PM 75.2 °F 37.9 °F 26% 30.01 in 10.0 mi SSE 4.6 mph - N/A   Clear
10:15 PM 74.8 °F 37.6 °F 26% 30.02 in 10.0 mi SSE 6.9 mph - N/A   Clear
10:55 PM 73.0 °F 43.0 °F 34% 30.03 in 10.0 mi SSE 6.9 mph - N/A   Clear
11:15 PM 71.8 °F 45.7 °F 39% 30.03 in 10.0 mi SSE 6.9 mph - N/A   Clear
11:35 PM 70.7 °F 47.1 °F 43% 30.03 in 10.0 mi South 3.5 mph - N/A   Clear
11:55 PM 69.8 °F 48.6 °F 47% 30.04 in 10.0 mi South 5.8 mph - N/A   Clear